Notices

What's New in latest Release from April 7th, 2021:

- Updated Glossary, including Speed of Maximum Gust, and Total Hourly Precipitation

- Updated national and regional climate services offices contacts and prices information

- Addition of station inventory lists for 1981-2010, 1971-2000, and 1961-1990 Normals.

If you haven't already, please take our survey and provide feedback about our website: https://eccc.sondage-survey.ca/f/LanguageSelection.aspx?s=442ca660-fcf1-47c0-95a9-59707d6fd709

Hourly Data Report for November 19, 2016

VICTORIA UNIVERSITY CS
BRITISH COLUMBIA

48°27'25.200" N
123°18'16.600" W
60.10 m
1018598
71783
WYJ

Download Data

Hourly Data (November 2016)
Hourly Data Report for November 19, 2016
TIME
LST
Temp Definition
°C
Dew Point Definition
°C
Rel Hum Definition
%
Precip. Amount Definition
mm

Wind Dir Definition
10's deg

Wind Spd Definition
km/h
Visibility Definition
km
Stn Press Definition
kPa
Hmdx Definition


Wind Chill Definition


Weather Definition


00:00 9.8 2.1 59 0.0 8 9   99.76     LegendNANA
01:00 9.9 2.7 61 0.0 9 8   99.66     LegendNANA
02:00 9.8 3.0 63 0.0 10 7   99.66     LegendNANA
03:00 9.6 4.2 69 0.0 10 6   99.61     LegendNANA
04:00 9.6 4.2 69 0.0 10 4   99.60     LegendNANA
05:00 9.6 5.0 73 0.0 9 6   99.62     LegendNANA
06:00 9.3 5.3 76 0.0 9 7   99.61     LegendNANA
07:00 9.2 4.6 73 0.0 10 6   99.65     LegendNANA
08:00 9.2 4.5 72 0.0 12 4   99.67     LegendNANA
09:00 9.0 5.1 77 0.0 9 5   99.76     LegendNANA
10:00 11.1 5.7 69 0.0 8 7   99.75     LegendNANA
11:00 11.0 6.5 73 0.0 10 7   99.75     LegendNANA
12:00 10.5 6.2 74 0.0 11 6   99.72     LegendNANA
13:00 10.6 7.0 79 0.0 10 7   99.70     LegendNANA
14:00 10.9 6.5 74 0.0 9 5   99.68     LegendNANA
15:00 10.0 7.0 82 0.0 9 7   99.69     LegendNANA
16:00 9.6 7.2 85 0.0 11 3   99.69     LegendNANA
17:00 9.5 7.4 86 0.0 10 5   99.68     LegendNANA
18:00 9.5 7.4 86 0.0 8 5   99.66     LegendNANA
19:00 9.6 6.5 81 0.0 8 4   99.59     LegendNANA
20:00 9.8 7.0 83 0.0 10 4   99.56     LegendNANA
21:00 10.0 7.0 82 0.0 2 8   99.53     LegendNANA
22:00 10.8 6.6 75 0.0 16 9   99.46     LegendNANA
23:00 10.2 7.1 81 0.0 12 4   99.49     LegendNANA

Notes on Data Quality.

Legend

  • E = Estimated
  • M = Missing
  • NA = Not Available*
  • [empty] = Indicates an unobserved value
Date modified: